Flag for India Weather past 2 weeks in Jalandhar, Punjab, India

Now
84 °F

Fog.


Feels Like: 98 °F
Forecast: 80 / 92 °F
Wind: 3 mph from North

Location: Amritsar Airport

Current Time: Jul 31, 2015 at 7:53:25 PM

Latest Report: Jul 31, 2015 at 7:00 PM


Visibility: 2 mi

Pressure: 29.47 "Hg

Humidity: 89%

Dew point: 81 °F

Location of JalandharLocation

Historic Weather in Jalandhar — Graph

°F

Jalandhar temperature yesterday

Maximum temperature yesterday: 90 °F (at 10:00 AM)
Minimum temperature yesterday: 82 °F (at 2:00 AM)
Average temperature yesterday: 86 °F

Past Weeks' High & Low Weather Summary

 TemperatureHumidityPressure
High97 °F (Jul 16, 5:30 PM)100% (Jul 17, 1:30 AM)29.68 "Hg (Jul 17, 1:30 AM)
Low75 °F (Jul 17, 1:30 AM)59% (Jul 29, 5:30 PM)29.30 "Hg (Jul 16, 5:30 PM)
Average85 °F86%29.55 "Hg
* Reported Jul 16 5:30 PM — Jul 31 5:30 PM, Jalandhar, Weather by CustomWeather, © 2015

Note: Actual official high and low records may vary slightly from our data, if they occured in-between our weather recording intervals... More about our weather records

Advertising

Jalandhar weather history for previous 24 hours

 ConditionsComfort  
Time TempWeatherWind HumidityBarometerVisibility
5:30 PM
Fri, Jul 31
88 °FBroken clouds.8 mph70%29.45 "Hg2 mi
1:00 PM88 °FFog.10 mph70%29.53 "Hg2 mi
10:00 AM84 °FFog.10 mph79%29.53 "Hg2 mi
9:30 AM84 °FFog.9 mph79%29.53 "Hg2 mi
9:00 AM84 °FFog.8 mph79%29.53 "Hg2 mi
8:30 AM82 °FFog.9 mph84%29.50 "Hg2 mi
7:30 AM81 °FFog.6 mph94%29.50 "Hg2 mi
7:00 AM79 °FFog.5 mph100%29.50 "Hg2 mi
6:30 AM81 °FFog.7 mph89%29.50 "Hg2 mi
6:00 AM79 °FFog.2 mph94%29.50 "Hg2 mi
5:30 AM81 °FFog.5 mph89%29.50 "Hg2 mi
3:30 AM81 °FFog.10 mph89%29.47 "Hg2 mi
3:00 AM82 °FFog.9 mph84%29.47 "Hg2 mi
2:30 AM82 °FFog.5 mph89%29.47 "Hg2 mi
2:00 AM82 °FFog.1 mph89%29.47 "Hg2 mi
1:30 AM84 °FFog.5 mph84%29.50 "Hg2 mi
1:00 AM84 °FFog.6 mph79%29.50 "Hg2 mi
Weather by CustomWeather, © 2015

See weather overviewHow to use our weather pages